Location: Marne
(34.0056°N, 117.9064°W)
Time: 02:05:08
(UTC+00:00)

Atlas Centaur 2 - Pass Details

Date: 18 January 2020
Orbit: 459 x 1310 km, 30.4° (Epoch: 19 February)

Event Time Altitude Azimuth Distance (km) Brightness Sun altitude
Rises 03:59:37 0° 238° (WSW) 3,291 6.0 -35.4°
Reaches altitude 10° 04:01:59 10° 231° (SW) 2,488 5.2 -35.9°
Enters shadow 04:04:53 28° 214° (SSW) 1,659 3.9 -36.5°
